Skip Page Navigation
NASA JPL Caltech
NASA Logo - Jet Propulsion Laboratory + View the NASA Portal
+ Center for Near-Earth Object Studies
JPL Home Earth Solar System Stars & Galaxies Technology
JPL Solar System Dynamics
BODIES ORBITS EPHEMERIDES TOOLS PHYSICAL DATA DISCOVERY FAQ SITE MAP
JPL Small-Body Database Browser
Search: [ help ]  
19985 (1990 GD)
Classification: Main-belt Asteroid          SPK-ID: 2019985
Ephemeris | Orbit Diagram | Orbital Elements | Mission Design | Physical Parameters | Discovery Circumstances ]

[ show orbit diagram ]
Orbital Elements at Epoch 2459200.5 (2020-Dec-17.0) TDB
Reference: JPL 31 (heliocentric ecliptic J2000)
 Element Value Uncertainty (1-sigma)   Units 
e .1066579050680329 3.1388e-08  
a 2.447737863961193 1.1881e-08 au
q 2.186667271235391 7.8283e-08 au
i 7.469758660200403 5.0434e-06 deg
node 350.858744210822 2.512e-05 deg
peri 254.5171962131395 3.553e-05 deg
M 307.9417730902949 2.3685e-05 deg
tp 2459402.770550826825
(2021-Jul-07.27055083)
9.1805e-05 TDB
period 1398.768314256236
3.83
1.0185e-05
2.789e-08
d
yr
n .2573692843417189 1.8739e-09 deg/d
Q 2.708808456686996 1.3149e-08 au
  Orbit Determination Parameters
   # obs. used (total)      1389  
   data-arc span      11299 days (30.93 yr)  
   first obs. used      1990-04-15  
   last obs. used      2021-03-22  
   planetary ephem.      DE441  
   SB-pert. ephem.      SB441-N16  
   condition code      0  
   norm. resid. RMS      .50693  
   source      ORB  
   producer      Otto Matic  
   solution date      2021-May-04 03:00:43  

Additional Information
 Earth MOID = 1.18683 au 
 Jupiter MOID = 2.33967 au 
 T_jup = 3.478 
[ hide covariance matrix ]
Orbital Elements at Epoch 2456883.5 (2014-Aug-14.0) TDB
Reference: JPL 31 (heliocentric ecliptic J2000)
 Element Value Uncertainty (1-sigma)   Units 
e .1072856850760491 3.1247e-08  
q 2.185317426865932 7.8016e-08 au
tp 2456605.671170553242
(2013-Nov-09.17117055)
9.6493e-05 TDB
node 350.8949186458243 2.5104e-05 deg
peri 254.6677115327037 3.5466e-05 deg
i 7.472990921190194 5.0446e-06 deg
  Orbit Determination Parameters
   # obs. used (total)      1389  
   data-arc span      11299 days (30.93 yr)  
   first obs. used      1990-04-15  
   last obs. used      2021-03-22  
   planetary ephem.      DE441  
   SB-pert. ephem.      SB441-N16  
   condition code      0  
   norm. resid. RMS      .50693  
   source      ORB  
   producer      Otto Matic  
   solution date      2021-May-04 03:00:43  

Additional Information
 Jupiter MOID = 2.33967 au 
 T_jup = 3.478 
Orbit Covariance (6×6)
  e q tp node peri i
e 9.763728376502567E-16 -2.415340163128007E-15 -5.7623804118322E-13 2.317835292142276E-15 -1.730122890081487E-13 1.69760786401546E-15
q -2.415340163128007E-15 6.086423877180469E-15 1.054247055255293E-12 -5.962908563218223E-15 3.374531410444006E-13 -3.585406542398769E-15
tp -5.7623804118322E-13 1.054247055255293E-12 9.310818692048988E-9 -1.801435502610664E-11 2.422761441818395E-9 -3.739393585551705E-12
node 2.317835292142276E-15 -5.962908563218223E-15 -1.801435502610664E-11 6.302057579543446E-10 -6.290737600114788E-10 -1.78005199279968E-13
peri -1.730122890081487E-13 3.374531410444006E-13 2.422761441818395E-9 -6.290737600114788E-10 1.257807857199309E-9 -7.803272651541803E-13
i 1.69760786401546E-15 -3.585406542398769E-15 -3.739393585551705E-12 -1.78005199279968E-13 -7.803272651541803E-13 2.544811864935682E-11

Ephemeris | Orbit Diagram | Orbital Elements | Mission Design | Physical Parameters | Discovery Circumstances ]

Physical Parameter Table
Parameter Symbol Value Units Sigma Reference Notes
absolute magnitude H 14.55   n/a E2021B10  
diameter diameter 3.531 km 0.115 urn:nasa:pds:neowise_diameters_albedos::2.0[mainbelt] (http://adsabs.harvard.edu/abs/2011ApJ...741...68M)  
rotation period rot_per 5.326506 h n/a LCDB (Rev. 2020-October); Warner et al., 2009 sidereal period (not synodic); Result based on less than full coverage, so that the period may be wrong by 30 percent or so.
Published Reference List:
[Durech, J.; Hanus, J.; Ali-Lagoa, V. (2018) Astron. Astrophys. 617, A57.]
geometric albedo albedo 0.270   0.034 urn:nasa:pds:neowise_diameters_albedos::2.0[mainbelt] (http://adsabs.harvard.edu/abs/2011ApJ...741...68M)  

19985 (1990 GD)          Discovered 1990-Apr-15 by Elst, E. W. at La Silla
Reference: 20010109/Numbers.arcLast Updated: 2004-04-19

Alternate Designations
 1990 GD = 1995 SD49 
Ephemeris | Orbit Diagram | Orbital Elements | Mission Design | Physical Parameters | Discovery Circumstances ]
ABOUT SSD CREDITS/AWARDS PRIVACY/COPYRIGHT GLOSSARY LINKS
FirstGov 2021-May-16 01:17 UT
(server date/time)  
NASA Home Page
Site Manager:   Ryan S. Park
Webmaster  Alan B. Chamberlin